Regional Weather Roundup
Issued by NWS

Home | Current Version | Previous Version | Text Only | Print | Product List | Glossary On
Versions: 1 2 3 4 5 6 7 8 9 10 11 12 13 14 15 16 17 18 19 20 21 22 23 24 25 26 27 28 29 30 31 32 33 34 35 36 37 38 39 40 41 42 43 44 45 46 47 48 49 50
000
ASUS45 KBOU 301207
RWRCO

WEATHER ROUNDUP FOR COLORADO
NATIONAL WEATHER SERVICE DENVER/BOULDER CO
500 AM MST FRI JAN 30 2015

NOTE: "FAIR" INDICATES FEW OR NO CLOUDS BELOW 12000 FEET WITH NO
SIGNIFICANT WEATHER AND/OR OBSTRUCTIONS TO VISIBILITY.

COZ001>005-013-030-031-301300-
...NORTHWEST COLORADO...

CITY           SKY/WX    TMP DP  RH WIND       PRES   REMARKS
CRAIG          CLOUDY    33  31  92 NE5       30.25F WCI  29
HAYDEN         CLOUDY    30  27  86 CALM      30.25F
MEEKER         CLOUDY    33  31  92 CALM      30.23F
MOUNT WERNER   NOT AVBL
STEAMBOAT SPGS CLOUDY    27  24  86 CALM      30.26S
WALDEN         CLOUDY    25  19  80 SE5       30.25S WCI  19
$$

COZ006>008-011-301300-
...WEST CENTRAL VALLEYS...

CITY           SKY/WX    TMP DP  RH WIND       PRES   REMARKS
GRAND JUNCTION CLOUDY    36  33  89 CALM      30.20F
MONTROSE       CLOUDY    38  30  73 CALM      30.23F
EAGLE          CLOUDY    30  28  93 CALM      30.28F
RIFLE          CLOUDY    33  28  81 CALM      30.22F
DELTA          CLOUDY    42  31  66 NE6       30.21F
NUCLA          DRIZZLE   37  36  93 N5        30.23F
$$

COZ017>023-064>068-301300-
...SOUTHWEST COLORADO...

CITY           SKY/WX    TMP DP  RH WIND       PRES   REMARKS
DURANGO        CLOUDY    34  29  82 E6        30.26F WCI  29
CORTEZ         CLOUDY    38  29  70 CALM      30.23S
PAGOSA SPRINGS LGT SNOW  31  31 100 CALM      30.29F
TELLURIDE      CLOUDY    32  31  98 CALM      30.22F
WOLF CREEK PAS NOT AVBL
$$

COZ009-010-012-014-032>034-037-058>063-301300-
...CENTRAL COLORADO...

CITY           SKY/WX    TMP DP  RH WIND       PRES   REMARKS
ASPEN          CLOUDY    24  19  81 S6        30.23F WCI  17
BUENA VISTA    CLOUDY    28  23  81 W3        30.29F
COPPER MTN     CLOUDY    28  18  64 W5        30.29F WCI  23
BERTHOUD PASS  CLOUDY    18  12  79 NW15G21   30.31S WCI   3
COTTONWOOD PAS CLOUDY    28  23  80 CALM      30.28F
GUNNISON       CLOUDY    25  21  86 CALM      30.29F
KREMMLING      CLOUDY    23  19  86 CALM      30.30S
LEADVILLE      CLOUDY    17  14  88 NE3       30.26F
MONARCH PASS   MIX PCPN  23  21  93 S7        30.39F VSB<1/4 WCI  15
SALIDA         CLOUDY    30  26  88 CALM      30.35F
SUNLIGHT       CLOUDY    28  27  93 CALM      30.27F
WILKERSON PASS FOG      N/A N/A N/A W8        30.30F VSB 3/4
$$

COZ069>075-301300-
...SAN LUIS VALLEY/SANGRE DE CRISTO MOUNTAINS...

CITY           SKY/WX    TMP DP  RH WIND       PRES   REMARKS
ALAMOSA        LGT SNOW  28  26  92 SE8       30.30S FOG     WCI  20
LA VETA PASS   LGT SNOW  21  19  93 SW7       30.28F WCI  13
SAGUACHE       LGT SNOW  30  30 100 SE8       30.31S VSB 1   WCI  23
$$

COZ035-036-038>040-301300-
...NORTHERN COLORADO FRONT RANGE...

CITY           SKY/WX    TMP DP  RH WIND       PRES   REMARKS
DENVER INTL AP CLOUDY    31  24  75 W7        30.20F WCI  24
DMNS CITY PARK   N/A     33  25  71 N1        30.20F
AURORA         CLOUDY    33  25  73 W5        30.21F WCI  28
FRONT RANGE AP NOT AVBL
ERIE MUNI ARPT CLOUDY    29  27  92 CALM      30.22S
BOULDER MUN AP CLOUDY    34  25  69 CALM      30.21S
CENTENNIAL     CLOUDY    34  26  72 W5        30.20F WCI  30
BROOMFIELD     CLOUDY    34  23  64 N8        30.21F WCI  27
FORT COLLINS   CLOUDY    27  21  80 N5        30.23F WCI  21
LONGMONT       CLOUDY    31  26  83 CALM      30.24S
$$

COZ041-046-047-076>085-087-088-301300-
...PIKES PEAK/PALMER DIVIDE AND SOUTHERN FOOTHILLS...

CITY           SKY/WX    TMP DP  RH WIND       PRES   REMARKS
COLO. SPRINGS  CLOUDY    30  23  75 E7        30.25F WCI  23
A. F. ACADEMY  CLOUDY    28  22  78 S2        30.24F
ELLICOTT       CLOUDY   N/A N/A N/A S10       30.24F
FALCON         CLOUDY    28  22  81 CALM      30.25F
FORT CARSON    CLOUDY    27  23  84 N2        30.24F
LIMON          CLOUDY    33  23  66 SE14      30.25F WCI  23
MONUMENT HILL  CLOUDY    30  23  74 S10       30.21S WCI  21
TRINIDAD       CLOUDY    39  24  55 SW18G29   30.28F
$$

COZ042>045-048>051-090-091-301300-
...NORTHEAST COLORADO...

CITY           SKY/WX    TMP DP  RH WIND       PRES   REMARKS
GREELEY ARPT   CLOUDY    25  18  74 N6        30.21F WCI  18
AKRON          CLOUDY    31  23  72 SE12      30.24F WCI  22
BURLINGTON     CLOUDY    32  23  69 S16       30.30F WCI  21
WRAY           CLOUDY    32  24  72 CALM      30.30F
STERLING       CLOUDY    32  23  69 CALM      30.25F
HOLYOKE        NOT AVBL
FORT MORGAN    CLOUDY    28  23  80 NE6       30.24F WCI  22
$$

COZ086-089-092>099-301300-
...SOUTHEAST COLORADO...

CITY           SKY/WX    TMP DP  RH WIND       PRES   REMARKS
PUEBLO         CLOUDY    28  23  81 NW3       30.26F
LA JUNTA       CLOUDY    39  28  64 S7        30.29F
LAMAR          CLOUDY    41  28  60 S14       30.31F
SPRINGFIELD      N/A     34  28  79 S13       30.34F WCI  25
$$



USA.gov is the U.S. government's official web portal to all federal, state and local government web resources and services.